User: anonymous   Login
Location: Fort Wayne
(41.1310°N, 85.1290°W)
Time: 02:43:30
(UTC-05:00)
Language:

Cosmos 1980 - Orbit

View from above orbital plane
View from above orbital plane
View from above satellite
View from above satellite

Ground track
Ground track

The orbit data is extracted from the following two-line orbital elements,

1 19649U 88102A   17055.91171621 +.00000050 +00000-0 +50563-4 0  9992
2 19649 071.0012 301.4884 0003725 144.6879 215.4491 14.14664068458425
Epoch (UTC): 24 February 2017 21:52:52
Eccentricity: 0.0003725
inclination: 71.0012°
perigee height: 841 km
apogee height: 846 km
right ascension of ascending node: 301.4884°
argument of perigee: 144.6879°
revolutions per day: 14.14664068
mean anomaly at epoch: 215.4491°
orbit number at epoch: 45842

The dashed part of the orbit path shows where the satellite is in the earth's shadow,  

DLR